Location: Cactus School
(34.5700°N, 118.0931°W)
Time: 12:13:27
(UTC-07:00)

CAS-6 - Visible Passes

Search period start: 26 May 2024 00:00
Search period end: 05 June 2024 00:00
Orbit: 607 x 628 km, 97.8° (Epoch: 26 May)

Date Brightness Start Highest point End Pass type
(mag) Time Alt. Az. Time Alt. Az. Time Alt. Az.
26 May ? 22:02:01 14° ENE 22:02:01 14° ENE 22:03:48 10° NE visible
26 May ? 23:39:08 27° NW 23:39:08 27° NW 23:41:22 10° NNW visible
27 May ? 22:18:41 20° ENE 22:18:41 20° ENE 22:21:13 10° NNE visible
27 May ? 23:55:47 19° WNW 23:55:47 19° WNW 23:57:32 10° NW visible
28 May ? 22:35:21 29° NE 22:35:21 29° NE 22:38:13 10° N visible
29 May ? 00:12:27 13° WNW 00:12:27 13° WNW 00:13:21 10° NW visible
29 May ? 22:52:00 38° NNE 22:52:00 38° NNE 22:55:01 10° N visible
30 May ? 23:08:40 44° N 23:08:40 44° N 23:11:38 10° N visible
31 May ? 23:25:19 38° NW 23:25:19 38° NW 23:28:05 10° NNW visible
01 Jun ? 22:04:52 15° ENE 22:04:52 15° ENE 22:07:07 10° NNE visible
01 Jun ? 23:41:59 28° NW 23:41:59 28° NW 23:44:24 10° NNW visible
02 Jun ? 22:21:31 22° ENE 22:21:31 22° ENE 22:24:24 10° NNE visible
02 Jun ? 23:58:38 19° WNW 23:58:38 19° WNW 00:00:29 10° NW visible
03 Jun ? 22:38:11 32° NE 22:38:11 32° NE 22:41:20 10° N visible
04 Jun ? 00:15:17 13° WNW 00:15:17 13° WNW 00:16:12 10° NW visible
04 Jun ? 22:54:49 44° NNE 22:54:49 44° NNE 22:58:03 10° N visible
